Year,Month,Day,Hour,Minute,Value (Times are PST for temperature in C)
2016,08,20,00,00,22.80
2016,08,20,00,01,22.80
2016,08,20,00,02,22.80
2016,08,20,00,03,22.70
2016,08,20,00,04,22.70
2016,08,20,00,05,22.70
2016,08,20,00,06,22.70
2016,08,20,00,07,22.60
2016,08,20,00,08,22.60
2016,08,20,00,09,22.60
2016,08,20,00,10,22.50
2016,08,20,00,11,22.50
2016,08,20,00,12,22.40
2016,08,20,00,13,22.40
2016,08,20,00,14,22.30
2016,08,20,00,15,22.30
2016,08,20,00,16,22.20
2016,08,20,00,17,22.20
2016,08,20,00,18,22.20
2016,08,20,00,19,22.10
2016,08,20,00,20,22.10
2016,08,20,00,21,22.00
2016,08,20,00,22,21.90
2016,08,20,00,23,21.90
2016,08,20,00,24,21.80
2016,08,20,00,25,21.80
2016,08,20,00,26,21.70
2016,08,20,00,27,21.60
2016,08,20,00,28,21.60
2016,08,20,00,29,21.60
2016,08,20,00,30,21.50
2016,08,20,00,31,21.40
2016,08,20,00,32,21.30
2016,08,20,00,33,21.30
2016,08,20,00,34,21.30
2016,08,20,00,35,21.30
2016,08,20,00,36,21.20
2016,08,20,00,37,21.10
2016,08,20,00,38,21.10
2016,08,20,00,39,21.10
2016,08,20,00,40,21.00
2016,08,20,00,41,21.00
2016,08,20,00,42,21.00
2016,08,20,00,43,20.90
2016,08,20,00,44,20.90
2016,08,20,00,45,20.90
2016,08,20,00,46,21.00
2016,08,20,00,47,21.00
2016,08,20,00,48,21.10
2016,08,20,00,49,21.10
2016,08,20,00,50,21.20
2016,08,20,00,51,21.20
2016,08,20,00,52,21.20
2016,08,20,00,53,21.20
2016,08,20,00,54,21.20
2016,08,20,00,55,21.20
2016,08,20,00,56,21.20
2016,08,20,00,57,21.20
2016,08,20,00,58,21.20
2016,08,20,00,59,21.30
2016,08,20,01,00,21.30
2016,08,20,01,01,21.40
2016,08,20,01,02,21.40
2016,08,20,01,03,21.50
2016,08,20,01,04,21.60
2016,08,20,01,05,21.60
2016,08,20,01,06,21.60
2016,08,20,01,07,21.60
2016,08,20,01,08,21.60
2016,08,20,01,09,21.60
2016,08,20,01,10,21.70
2016,08,20,01,11,21.70
2016,08,20,01,12,21.70
2016,08,20,01,13,21.80
2016,08,20,01,14,21.80
2016,08,20,01,15,21.90
2016,08,20,01,16,22.00
2016,08,20,01,17,22.00
2016,08,20,01,18,22.10
2016,08,20,01,19,22.10
2016,08,20,01,20,22.20
2016,08,20,01,21,22.30
2016,08,20,01,22,22.30
2016,08,20,01,23,22.40
2016,08,20,01,24,22.40
2016,08,20,01,25,22.40
2016,08,20,01,26,22.50
2016,08,20,01,27,22.50
2016,08,20,01,28,22.50
2016,08,20,01,29,22.50
2016,08,20,01,30,22.50
2016,08,20,01,31,22.50
2016,08,20,01,32,22.50
2016,08,20,01,33,22.50
2016,08,20,01,34,22.50
2016,08,20,01,35,22.40
2016,08,20,01,36,22.40
2016,08,20,01,37,22.40
2016,08,20,01,38,22.30
2016,08,20,01,39,22.30
2016,08,20,01,40,22.20
2016,08,20,01,41,22.20
2016,08,20,01,42,22.10
2016,08,20,01,43,22.00
2016,08,20,01,44,22.00
2016,08,20,01,45,21.90
2016,08,20,01,46,21.80
2016,08,20,01,47,21.70
2016,08,20,01,48,21.60
2016,08,20,01,49,21.60
2016,08,20,01,50,21.60
2016,08,20,01,51,21.50
2016,08,20,01,52,21.40
2016,08,20,01,53,21.40
2016,08,20,01,54,21.30
2016,08,20,01,55,21.30
2016,08,20,01,56,21.30
2016,08,20,01,57,21.30
2016,08,20,01,58,21.30
2016,08,20,01,59,21.30
2016,08,20,02,00,21.30
2016,08,20,02,01,21.30
2016,08,20,02,02,21.30
2016,08,20,02,03,21.40
2016,08,20,02,04,21.40
2016,08,20,02,05,21.40
2016,08,20,02,06,21.40
2016,08,20,02,07,21.50
2016,08,20,02,08,21.60
2016,08,20,02,09,21.60
2016,08,20,02,10,21.60
2016,08,20,02,11,21.60
2016,08,20,02,12,21.60
2016,08,20,02,13,21.60
2016,08,20,02,14,21.60
2016,08,20,02,15,21.70
2016,08,20,02,16,21.70
2016,08,20,02,17,21.70
2016,08,20,02,18,21.70
2016,08,20,02,19,21.60
2016,08,20,02,20,21.60
2016,08,20,02,21,21.60
2016,08,20,02,22,21.60
2016,08,20,02,23,21.60
2016,08,20,02,24,21.60
2016,08,20,02,25,21.50
2016,08,20,02,26,21.40
2016,08,20,02,27,21.40
2016,08,20,02,28,21.40
2016,08,20,02,29,21.30
2016,08,20,02,30,21.30
2016,08,20,02,31,21.30
2016,08,20,02,32,21.30
2016,08,20,02,33,21.30
2016,08,20,02,34,21.30
2016,08,20,02,35,21.30
2016,08,20,02,36,21.30
2016,08,20,02,37,21.30
2016,08,20,02,38,21.30
2016,08,20,02,39,21.30
2016,08,20,02,40,21.30
2016,08,20,02,41,21.30
2016,08,20,02,42,21.30
2016,08,20,02,43,21.30
2016,08,20,02,44,21.30
2016,08,20,02,45,21.40
2016,08,20,02,46,21.40
2016,08,20,02,47,21.40
2016,08,20,02,48,21.40
2016,08,20,02,49,21.40
2016,08,20,02,50,21.40
2016,08,20,02,51,21.40
2016,08,20,02,52,21.40
2016,08,20,02,53,21.40
2016,08,20,02,54,21.40
2016,08,20,02,55,21.40
2016,08,20,02,56,21.40
2016,08,20,02,57,21.30
2016,08,20,02,58,21.30
2016,08,20,02,59,21.30
2016,08,20,03,00,21.30
2016,08,20,03,01,21.30
2016,08,20,03,02,21.20
2016,08,20,03,03,21.20
2016,08,20,03,04,21.10
2016,08,20,03,05,21.10
2016,08,20,03,06,21.00
2016,08,20,03,07,21.00
2016,08,20,03,08,21.00
2016,08,20,03,09,20.90
2016,08,20,03,10,20.90
2016,08,20,03,11,20.90
2016,08,20,03,12,20.80
2016,08,20,03,13,20.80
2016,08,20,03,14,20.70
2016,08,20,03,15,20.70
2016,08,20,03,16,20.60
2016,08,20,03,17,20.60
2016,08,20,03,18,20.60
2016,08,20,03,19,20.60
2016,08,20,03,20,20.60
2016,08,20,03,21,20.60
2016,08,20,03,22,20.70
2016,08,20,03,23,20.70
2016,08,20,03,24,20.80
2016,08,20,03,25,20.80
2016,08,20,03,26,20.90
2016,08,20,03,27,21.00
2016,08,20,03,28,21.00
2016,08,20,03,29,21.10
2016,08,20,03,30,21.10
2016,08,20,03,31,21.20
2016,08,20,03,32,21.20
2016,08,20,03,33,21.20
2016,08,20,03,34,21.20
2016,08,20,03,35,21.20
2016,08,20,03,36,21.20
2016,08,20,03,37,21.20
2016,08,20,03,38,21.20
2016,08,20,03,39,21.20
2016,08,20,03,40,21.30
2016,08,20,03,41,21.30
2016,08,20,03,42,21.30
2016,08,20,03,43,21.30
2016,08,20,03,44,21.30
2016,08,20,03,45,21.30
2016,08,20,03,46,21.30
2016,08,20,03,47,21.30
2016,08,20,03,48,21.30
2016,08,20,03,49,21.30
2016,08,20,03,50,21.30
2016,08,20,03,51,21.30
2016,08,20,03,52,21.30
2016,08,20,03,53,21.30
2016,08,20,03,54,21.30
2016,08,20,03,55,21.30
2016,08,20,03,56,21.30
2016,08,20,03,57,21.30
2016,08,20,03,58,21.30
2016,08,20,03,59,21.30
2016,08,20,04,00,21.30
2016,08,20,04,01,21.30
2016,08,20,04,02,21.30
2016,08,20,04,03,21.30
2016,08,20,04,04,21.30
2016,08,20,04,05,21.30
2016,08,20,04,06,21.30
2016,08,20,04,07,21.30
2016,08,20,04,08,21.30
2016,08,20,04,09,21.30
2016,08,20,04,10,21.30
2016,08,20,04,11,21.30
2016,08,20,04,12,21.30
2016,08,20,04,13,21.30
2016,08,20,04,14,21.30
2016,08,20,04,15,21.40
2016,08,20,04,16,21.40
2016,08,20,04,17,21.40
2016,08,20,04,18,21.40
2016,08,20,04,19,21.40
2016,08,20,04,20,21.40
2016,08,20,04,21,21.60
2016,08,20,04,22,21.60
2016,08,20,04,23,21.60
2016,08,20,04,24,21.60
2016,08,20,04,25,21.60
2016,08,20,04,26,21.70
2016,08,20,04,27,21.70
2016,08,20,04,28,21.80
2016,08,20,04,29,21.80
2016,08,20,04,30,21.90
2016,08,20,04,31,21.90
2016,08,20,04,32,22.00
2016,08,20,04,33,22.00
2016,08,20,04,34,22.00
2016,08,20,04,35,22.10
2016,08,20,04,36,22.10
2016,08,20,04,37,22.10
2016,08,20,04,38,22.00
2016,08,20,04,39,22.00
2016,08,20,04,40,22.00
2016,08,20,04,41,22.00
2016,08,20,04,42,21.90
2016,08,20,04,43,21.90
2016,08,20,04,44,21.80
2016,08,20,04,45,21.80
2016,08,20,04,46,21.70
2016,08,20,04,47,21.60
2016,08,20,04,48,21.60
2016,08,20,04,49,21.60
2016,08,20,04,50,21.60
2016,08,20,04,51,21.40
2016,08,20,04,52,21.40
2016,08,20,04,53,21.30
2016,08,20,04,54,21.30
2016,08,20,04,55,21.30
2016,08,20,04,56,21.20
2016,08,20,04,57,21.10
2016,08,20,04,58,21.10
2016,08,20,04,59,21.00
2016,08,20,05,00,21.00
2016,08,20,05,01,20.90
2016,08,20,05,02,20.80
2016,08,20,05,03,20.80
2016,08,20,05,04,20.70
2016,08,20,05,05,20.60
2016,08,20,05,06,20.60
2016,08,20,05,07,20.50
2016,08,20,05,08,20.50
2016,08,20,05,09,20.40
2016,08,20,05,10,20.40
2016,08,20,05,11,20.30
2016,08,20,05,12,20.30
2016,08,20,05,13,20.30
2016,08,20,05,14,20.30
2016,08,20,05,15,20.20
2016,08,20,05,16,20.20
2016,08,20,05,17,20.30
2016,08,20,05,18,20.30
2016,08,20,05,19,20.30
2016,08,20,05,20,20.30
2016,08,20,05,21,20.30
2016,08,20,05,22,20.30
2016,08,20,05,23,20.30
2016,08,20,05,24,20.30
2016,08,20,05,25,20.30
2016,08,20,05,26,20.30
2016,08,20,05,27,20.30
2016,08,20,05,28,20.30
2016,08,20,05,29,20.20
2016,08,20,05,30,20.20
2016,08,20,05,31,20.20
2016,08,20,05,32,20.20
2016,08,20,05,33,20.20
2016,08,20,05,34,20.20
2016,08,20,05,35,20.20
2016,08,20,05,36,20.10
2016,08,20,05,37,20.10
2016,08,20,05,38,20.00
2016,08,20,05,39,19.90
2016,08,20,05,40,19.90
2016,08,20,05,41,19.90
2016,08,20,05,42,19.80
2016,08,20,05,43,19.70
2016,08,20,05,44,19.70
2016,08,20,05,45,19.60
2016,08,20,05,46,19.50
2016,08,20,05,47,19.50
2016,08,20,05,48,19.50
2016,08,20,05,49,19.40
2016,08,20,05,50,19.40
2016,08,20,05,51,19.40
2016,08,20,05,52,19.30
2016,08,20,05,53,19.30
2016,08,20,05,54,19.30
2016,08,20,05,55,19.30
2016,08,20,05,56,19.30
2016,08,20,05,57,19.30
2016,08,20,05,58,19.20
2016,08,20,05,59,19.20
2016,08,20,06,00,19.20
2016,08,20,06,01,19.20
2016,08,20,06,02,19.10
2016,08,20,06,03,19.10
2016,08,20,06,04,19.10
2016,08,20,06,05,19.10
2016,08,20,06,06,19.10
2016,08,20,06,07,19.10
2016,08,20,06,08,19.10
2016,08,20,06,09,19.10
2016,08,20,06,10,19.20
2016,08,20,06,11,19.20
2016,08,20,06,12,19.20
2016,08,20,06,13,19.20
2016,08,20,06,14,19.20
2016,08,20,06,15,19.20
2016,08,20,06,16,19.20
2016,08,20,06,17,19.10
2016,08,20,06,18,19.10
2016,08,20,06,19,19.10
2016,08,20,06,20,19.10
2016,08,20,06,21,19.10
2016,08,20,06,22,19.10
2016,08,20,06,23,19.10
2016,08,20,06,24,19.10
2016,08,20,06,25,19.10
2016,08,20,06,26,19.00
2016,08,20,06,27,18.90
2016,08,20,06,28,18.90
2016,08,20,06,29,18.90
2016,08,20,06,30,18.90
2016,08,20,06,31,18.90
2016,08,20,06,32,18.90
2016,08,20,06,33,18.90
2016,08,20,06,34,18.90
2016,08,20,06,35,18.90
2016,08,20,06,36,18.90
2016,08,20,06,37,19.00
2016,08,20,06,38,19.10
2016,08,20,06,39,19.10
2016,08,20,06,40,19.10
2016,08,20,06,41,19.10
2016,08,20,06,42,19.10
2016,08,20,06,43,19.10
2016,08,20,06,44,19.20
2016,08,20,06,45,19.20
2016,08,20,06,46,19.30
2016,08,20,06,47,19.30
2016,08,20,06,48,19.40
2016,08,20,06,49,19.40
2016,08,20,06,50,19.40
2016,08,20,06,51,19.50
2016,08,20,06,52,19.50
2016,08,20,06,53,19.60
2016,08,20,06,54,19.60
2016,08,20,06,55,19.60
2016,08,20,06,56,19.70
2016,08,20,06,57,19.70
2016,08,20,06,58,19.70
2016,08,20,06,59,19.80
2016,08,20,07,00,19.80
2016,08,20,07,01,19.80
2016,08,20,07,02,19.80
2016,08,20,07,03,19.80
2016,08,20,07,04,19.80
2016,08,20,07,05,19.80
2016,08,20,07,06,19.80
2016,08,20,07,07,19.80
2016,08,20,07,08,19.80
2016,08,20,07,09,19.70
2016,08,20,07,10,19.70
2016,08,20,07,11,19.70
2016,08,20,07,12,19.70
2016,08,20,07,13,19.80
2016,08,20,07,14,19.80
2016,08,20,07,15,19.80
2016,08,20,07,16,19.80
2016,08,20,07,17,19.80
2016,08,20,07,18,19.80
2016,08,20,07,19,19.90
2016,08,20,07,20,19.90
2016,08,20,07,21,19.90
2016,08,20,07,22,19.90
2016,08,20,07,23,19.90
2016,08,20,07,24,19.90
2016,08,20,07,25,19.90
2016,08,20,07,26,20.00
2016,08,20,07,27,20.10
2016,08,20,07,28,20.10
2016,08,20,07,29,20.20
2016,08,20,07,30,20.20
2016,08,20,07,31,20.20
2016,08,20,07,32,20.20
2016,08,20,07,33,20.20
2016,08,20,07,34,20.20
2016,08,20,07,35,20.20
2016,08,20,07,36,20.30
2016,08,20,07,37,20.30
2016,08,20,07,38,20.30
2016,08,20,07,39,20.30
2016,08,20,07,40,20.30
2016,08,20,07,41,20.30
2016,08,20,07,42,20.30
2016,08,20,07,43,20.30
2016,08,20,07,44,20.30
2016,08,20,07,45,20.20
2016,08,20,07,46,20.20
2016,08,20,07,47,20.20
2016,08,20,07,48,20.20
2016,08,20,07,49,20.10
2016,08,20,07,50,20.10
2016,08,20,07,51,20.10
2016,08,20,07,52,20.10
2016,08,20,07,53,20.10
2016,08,20,07,54,20.10
2016,08,20,07,55,20.20
2016,08,20,07,56,20.20
2016,08,20,07,57,20.20
2016,08,20,07,58,20.20
2016,08,20,07,59,20.30
2016,08,20,08,00,20.30
2016,08,20,08,01,20.40
2016,08,20,08,02,20.40
2016,08,20,08,03,20.50
2016,08,20,08,04,20.50
2016,08,20,08,05,20.50
2016,08,20,08,06,20.50
2016,08,20,08,07,20.60
2016,08,20,08,08,20.70
2016,08,20,08,09,20.70
2016,08,20,08,10,20.70
2016,08,20,08,11,20.80
2016,08,20,08,12,20.80
2016,08,20,08,13,20.80
2016,08,20,08,14,20.70
2016,08,20,08,15,20.70
2016,08,20,08,16,20.70
2016,08,20,08,17,20.60
2016,08,20,08,18,20.50
2016,08,20,08,19,20.50
2016,08,20,08,20,20.50
2016,08,20,08,21,20.50
2016,08,20,08,22,20.50
2016,08,20,08,23,20.60
2016,08,20,08,24,20.70
2016,08,20,08,25,20.80
2016,08,20,08,26,20.80
2016,08,20,08,27,20.90
2016,08,20,08,28,21.00
2016,08,20,08,29,21.00
2016,08,20,08,30,21.10
2016,08,20,08,31,21.10
2016,08,20,08,32,21.10
2016,08,20,08,33,21.10
2016,08,20,08,34,21.10
2016,08,20,08,35,21.20
2016,08,20,08,36,21.20
2016,08,20,08,37,21.30
2016,08,20,08,38,21.30
2016,08,20,08,39,21.30
2016,08,20,08,40,21.30
2016,08,20,08,41,21.30
2016,08,20,08,42,21.30
2016,08,20,08,43,21.20
2016,08,20,08,44,21.10
2016,08,20,08,45,21.00
2016,08,20,08,46,20.90
2016,08,20,08,47,20.90
2016,08,20,08,48,20.90
2016,08,20,08,49,20.90
2016,08,20,08,50,21.00
2016,08,20,08,51,21.00
2016,08,20,08,52,21.10
2016,08,20,08,53,21.10
2016,08,20,08,54,21.10
2016,08,20,08,55,21.20
2016,08,20,08,56,21.30
2016,08,20,08,57,21.40
2016,08,20,08,58,21.50
2016,08,20,08,59,21.60
2016,08,20,09,00,21.60
2016,08,20,09,01,21.60
2016,08,20,09,02,21.60
2016,08,20,09,03,21.60
2016,08,20,09,04,21.60
2016,08,20,09,05,21.60
2016,08,20,09,06,21.60
2016,08,20,09,07,21.60
2016,08,20,09,08,21.60
2016,08,20,09,09,21.60
2016,08,20,09,10,21.60
2016,08,20,09,11,21.60
2016,08,20,09,12,21.60
2016,08,20,09,13,21.60
2016,08,20,09,14,21.60
2016,08,20,09,15,21.70
2016,08,20,09,16,21.70
2016,08,20,09,17,21.80
2016,08,20,09,18,21.70
2016,08,20,09,19,21.70
2016,08,20,09,20,21.60
2016,08,20,09,21,21.50
2016,08,20,09,22,21.40
2016,08,20,09,23,21.40
2016,08,20,09,24,21.40
2016,08,20,09,25,21.50
2016,08,20,09,26,21.40
2016,08,20,09,27,21.40
2016,08,20,09,28,21.50
2016,08,20,09,29,21.60
2016,08,20,09,30,21.60
2016,08,20,09,31,21.60
2016,08,20,09,32,21.70
2016,08,20,09,33,21.90
2016,08,20,09,34,22.00
2016,08,20,09,35,22.00
2016,08,20,09,36,22.00
2016,08,20,09,37,22.10
2016,08,20,09,38,22.00
2016,08,20,09,39,22.00
2016,08,20,09,40,21.90
2016,08,20,09,41,21.90
2016,08,20,09,42,21.90
2016,08,20,09,43,21.90
2016,08,20,09,44,21.80
2016,08,20,09,45,21.80
2016,08,20,09,46,21.80
2016,08,20,09,47,21.70
2016,08,20,09,48,21.70
2016,08,20,09,49,21.70
2016,08,20,09,50,21.70
2016,08,20,09,51,21.70
2016,08,20,09,52,21.70
2016,08,20,09,53,21.70
2016,08,20,09,54,21.70
2016,08,20,09,55,21.60
2016,08,20,09,56,21.60
2016,08,20,09,57,21.60
2016,08,20,09,58,21.60
2016,08,20,09,59,21.60
2016,08,20,10,00,21.60
2016,08,20,10,01,21.60
2016,08,20,10,02,21.60
2016,08,20,10,03,21.50
2016,08,20,10,04,21.40
2016,08,20,10,05,21.40
2016,08,20,10,06,21.40
2016,08,20,10,07,21.40
2016,08,20,10,08,21.40
2016,08,20,10,09,21.40
2016,08,20,10,10,21.50
2016,08,20,10,11,21.60
2016,08,20,10,12,21.60
2016,08,20,10,13,21.70
2016,08,20,10,14,21.80
2016,08,20,10,15,21.90
2016,08,20,10,16,21.90
2016,08,20,10,17,22.00
2016,08,20,10,18,22.00
2016,08,20,10,19,22.00
2016,08,20,10,20,21.90
2016,08,20,10,21,21.90
2016,08,20,10,22,21.80
2016,08,20,10,23,21.80
2016,08,20,10,24,21.80
2016,08,20,10,25,21.80
2016,08,20,10,26,21.80
2016,08,20,10,27,21.90
2016,08,20,10,28,21.90
2016,08,20,10,29,21.90
2016,08,20,10,30,21.90
2016,08,20,10,31,21.90
2016,08,20,10,32,21.90
2016,08,20,10,33,21.80
2016,08,20,10,34,21.80
2016,08,20,10,35,21.80
2016,08,20,10,36,21.80
2016,08,20,10,37,21.70
2016,08,20,10,38,21.80
2016,08,20,10,39,21.80
2016,08,20,10,40,21.80
2016,08,20,10,41,21.80
2016,08,20,10,42,21.80
2016,08,20,10,43,21.90
2016,08,20,10,44,21.90
2016,08,20,10,45,21.90
2016,08,20,10,46,21.90
2016,08,20,10,47,21.90
2016,08,20,10,48,21.90
2016,08,20,10,49,21.90
2016,08,20,10,50,21.80
2016,08,20,10,51,21.80
2016,08,20,10,52,21.80
2016,08,20,10,53,21.80
2016,08,20,10,54,21.80
2016,08,20,10,55,21.80
2016,08,20,10,56,21.90
2016,08,20,10,57,21.90
2016,08,20,10,58,22.00
2016,08,20,10,59,22.00
2016,08,20,11,00,22.10
2016,08,20,11,01,22.10
2016,08,20,11,02,22.10
2016,08,20,11,03,22.10
2016,08,20,11,04,22.20
2016,08,20,11,05,22.10
2016,08,20,11,06,22.10
2016,08,20,11,07,22.10
2016,08,20,11,08,22.10
2016,08,20,11,09,22.20
2016,08,20,11,10,22.30
2016,08,20,11,11,22.50
2016,08,20,11,12,22.60
2016,08,20,11,13,22.70
2016,08,20,11,14,22.70
2016,08,20,11,15,22.80
2016,08,20,11,16,22.80
2016,08,20,11,17,22.90
2016,08,20,11,18,22.80
2016,08,20,11,19,22.70
2016,08,20,11,20,22.70
2016,08,20,11,21,22.60
2016,08,20,11,22,22.50
2016,08,20,11,23,22.40
2016,08,20,11,24,22.40
2016,08,20,11,25,22.40
2016,08,20,11,26,22.30
2016,08,20,11,27,22.30
2016,08,20,11,28,22.30
2016,08,20,11,29,22.30
2016,08,20,11,30,22.30
2016,08,20,11,31,22.40
2016,08,20,11,32,22.50
2016,08,20,11,33,22.60
2016,08,20,11,34,22.60
2016,08,20,11,35,22.70
2016,08,20,11,36,22.80
2016,08,20,11,37,22.70
2016,08,20,11,38,22.70
2016,08,20,11,39,22.70
2016,08,20,11,40,22.80
2016,08,20,11,41,22.90
2016,08,20,11,42,22.90
2016,08,20,11,43,22.90
2016,08,20,11,44,23.00
2016,08,20,11,45,23.10
2016,08,20,11,46,23.00
2016,08,20,11,47,22.90
2016,08,20,11,48,22.90
2016,08,20,11,49,23.00
2016,08,20,11,50,23.00
2016,08,20,11,51,23.10
2016,08,20,11,52,23.20
2016,08,20,11,53,23.20
2016,08,20,11,54,23.20
2016,08,20,11,55,23.30
2016,08,20,11,56,23.30
2016,08,20,11,57,23.30
2016,08,20,11,58,23.30
2016,08,20,11,59,23.30
2016,08,20,12,00,23.30
2016,08,20,12,01,23.30
2016,08,20,12,02,23.40
2016,08,20,12,03,23.50
2016,08,20,12,04,23.60
2016,08,20,12,05,23.40
2016,08,20,12,06,23.40
2016,08,20,12,07,23.30
2016,08,20,12,08,23.40
2016,08,20,12,09,23.40
2016,08,20,12,10,23.40
2016,08,20,12,11,23.60
2016,08,20,12,12,23.60
2016,08,20,12,13,23.50
2016,08,20,12,14,23.40
2016,08,20,12,15,23.30
2016,08,20,12,16,23.20
2016,08,20,12,17,23.10
2016,08,20,12,18,23.10
2016,08,20,12,19,23.10
2016,08,20,12,20,23.10
2016,08,20,12,21,23.10
2016,08,20,12,22,23.10
2016,08,20,12,23,23.10
2016,08,20,12,24,23.10
2016,08,20,12,25,23.00
2016,08,20,12,26,22.90
2016,08,20,12,27,22.90
2016,08,20,12,28,22.90
2016,08,20,12,29,22.90
2016,08,20,12,30,22.90
2016,08,20,12,31,22.80
2016,08,20,12,32,22.80
2016,08,20,12,33,22.70
2016,08,20,12,34,22.70
2016,08,20,12,35,22.80
2016,08,20,12,36,22.80
2016,08,20,12,37,22.90
2016,08,20,12,38,22.90
2016,08,20,12,39,23.00
2016,08,20,12,40,23.10
2016,08,20,12,41,23.20
2016,08,20,12,42,23.30
2016,08,20,12,43,23.40
2016,08,20,12,44,23.50
2016,08,20,12,45,23.60
2016,08,20,12,46,23.70
2016,08,20,12,47,23.70
2016,08,20,12,48,23.60
2016,08,20,12,49,23.60
2016,08,20,12,50,23.40
2016,08,20,12,51,23.30
2016,08,20,12,52,23.30
2016,08,20,12,53,23.30
2016,08,20,12,54,23.30
2016,08,20,12,55,23.30
2016,08,20,12,56,23.30
2016,08,20,12,57,23.20
2016,08,20,12,58,23.10
2016,08,20,12,59,23.10
2016,08,20,13,00,22.90
2016,08,20,13,01,23.00
2016,08,20,13,02,23.10
2016,08,20,13,03,23.10
2016,08,20,13,04,23.20
2016,08,20,13,05,23.30
2016,08,20,13,06,23.30
2016,08,20,13,07,23.50
2016,08,20,13,08,23.50
2016,08,20,13,09,23.40
2016,08,20,13,10,23.30
2016,08,20,13,11,23.20
2016,08,20,13,12,23.20
2016,08,20,13,13,23.30
2016,08,20,13,14,23.30
2016,08,20,13,15,23.30
2016,08,20,13,16,23.30
2016,08,20,13,17,23.30
2016,08,20,13,18,23.30
2016,08,20,13,19,23.30
2016,08,20,13,20,23.30
2016,08,20,13,21,23.30
2016,08,20,13,22,23.30
2016,08,20,13,23,23.20
2016,08,20,13,24,23.30
2016,08,20,13,25,23.30
2016,08,20,13,26,23.30
2016,08,20,13,27,23.40
2016,08,20,13,28,23.60
2016,08,20,13,29,23.70
2016,08,20,13,30,23.70
2016,08,20,13,31,23.80
2016,08,20,13,32,23.90
2016,08,20,13,33,24.00
2016,08,20,13,34,24.10
2016,08,20,13,35,24.00
2016,08,20,13,36,23.90
2016,08,20,13,37,24.00
2016,08,20,13,38,24.10
2016,08,20,13,39,24.10
2016,08,20,13,40,24.20
2016,08,20,13,41,24.20
2016,08,20,13,42,24.20
2016,08,20,13,43,24.10
2016,08,20,13,44,23.90
2016,08,20,13,45,23.80
2016,08,20,13,46,23.70
2016,08,20,13,47,23.70
2016,08,20,13,48,23.60
2016,08,20,13,49,23.60
2016,08,20,13,50,23.50
2016,08,20,13,51,23.30
2016,08,20,13,52,23.30
2016,08,20,13,53,23.30
2016,08,20,13,54,23.30
2016,08,20,13,55,23.40
2016,08,20,13,56,23.50
2016,08,20,13,57,23.60
2016,08,20,13,58,23.70
2016,08,20,13,59,23.70
2016,08,20,14,00,23.80
2016,08,20,14,01,23.80
2016,08,20,14,02,23.70
2016,08,20,14,03,23.80
2016,08,20,14,04,23.80
2016,08,20,14,05,23.90
2016,08,20,14,06,24.00
2016,08,20,14,07,24.10
2016,08,20,14,08,24.20
2016,08,20,14,09,24.30
2016,08,20,14,10,24.30
2016,08,20,14,11,24.20
2016,08,20,14,12,24.20
2016,08,20,14,13,24.10
2016,08,20,14,14,24.10
2016,08,20,14,15,24.00
2016,08,20,14,16,23.90
2016,08,20,14,17,23.70
2016,08,20,14,18,23.70
2016,08,20,14,19,23.70
2016,08,20,14,20,23.70
2016,08,20,14,21,23.70
2016,08,20,14,22,23.70
2016,08,20,14,23,23.80
2016,08,20,14,24,23.90
2016,08,20,14,25,24.00
2016,08,20,14,26,24.20
2016,08,20,14,27,24.30
2016,08,20,14,28,24.40
2016,08,20,14,29,24.50
2016,08,20,14,30,24.70
2016,08,20,14,31,24.70
2016,08,20,14,32,24.90
2016,08,20,14,33,24.90
2016,08,20,14,34,25.00
2016,08,20,14,35,25.10
2016,08,20,14,36,25.10
2016,08,20,14,37,25.10
2016,08,20,14,38,25.10
2016,08,20,14,39,25.20
2016,08,20,14,40,25.30
2016,08,20,14,41,25.40
2016,08,20,14,42,25.60
2016,08,20,14,43,25.70
2016,08,20,14,44,25.70
2016,08,20,14,45,25.70
2016,08,20,14,46,25.50
2016,08,20,14,47,25.50
2016,08,20,14,48,25.60
2016,08,20,14,49,25.70
2016,08,20,14,50,25.70
2016,08,20,14,51,25.80
2016,08,20,14,52,25.80
2016,08,20,14,53,25.80
2016,08,20,14,54,25.70
2016,08,20,14,55,25.70
2016,08,20,14,56,25.60
2016,08,20,14,57,25.50
2016,08,20,14,58,25.50
2016,08,20,14,59,25.40
2016,08,20,15,00,25.50
2016,08,20,15,01,25.50
2016,08,20,15,02,25.60
2016,08,20,15,03,25.60
2016,08,20,15,04,25.60
2016,08,20,15,05,25.50
2016,08,20,15,06,25.40
2016,08,20,15,07,25.40
2016,08,20,15,08,25.40
2016,08,20,15,09,25.50
2016,08,20,15,10,25.60
2016,08,20,15,11,25.60
2016,08,20,15,12,25.80
2016,08,20,15,13,25.80
2016,08,20,15,14,25.90
2016,08,20,15,15,25.80
2016,08,20,15,16,25.70
2016,08,20,15,17,25.70
2016,08,20,15,18,25.60
2016,08,20,15,19,25.60
2016,08,20,15,20,25.50
2016,08,20,15,21,25.50
2016,08,20,15,22,25.50
2016,08,20,15,23,25.50
2016,08,20,15,24,25.50
2016,08,20,15,25,25.40
2016,08,20,15,26,25.40
2016,08,20,15,27,25.40
2016,08,20,15,28,25.30
2016,08,20,15,29,25.40
2016,08,20,15,30,25.40
2016,08,20,15,31,25.40
2016,08,20,15,32,25.50
2016,08,20,15,33,25.60
2016,08,20,15,34,25.60
2016,08,20,15,35,25.60
2016,08,20,15,36,25.50
2016,08,20,15,37,25.50
2016,08,20,15,38,25.40
2016,08,20,15,39,25.40
2016,08,20,15,40,25.30
2016,08,20,15,41,25.30
2016,08,20,15,42,25.20
2016,08,20,15,43,25.20
2016,08,20,15,44,25.30
2016,08,20,15,45,25.30
2016,08,20,15,46,25.30
2016,08,20,15,47,25.30
2016,08,20,15,48,25.40
2016,08,20,15,49,25.40
2016,08,20,15,50,25.40
2016,08,20,15,51,25.40
2016,08,20,15,52,25.40
2016,08,20,15,53,25.30
2016,08,20,15,54,25.40
2016,08,20,15,55,25.40
2016,08,20,15,56,25.40
2016,08,20,15,57,25.50
2016,08,20,15,58,25.70
2016,08,20,15,59,25.80
2016,08,20,16,00,25.90
2016,08,20,16,01,26.00
2016,08,20,16,02,26.00
2016,08,20,16,03,26.00
2016,08,20,16,04,25.90
2016,08,20,16,05,25.80
2016,08,20,16,06,25.70
2016,08,20,16,07,25.60
2016,08,20,16,08,25.60
2016,08,20,16,09,25.50
2016,08,20,16,10,25.40
2016,08,20,16,11,25.30
2016,08,20,16,12,25.30
2016,08,20,16,13,25.30
2016,08,20,16,14,25.30
2016,08,20,16,15,25.20
2016,08,20,16,16,25.20
2016,08,20,16,17,25.20
2016,08,20,16,18,25.20
2016,08,20,16,19,25.20
2016,08,20,16,20,25.20
2016,08,20,16,21,25.20
2016,08,20,16,22,25.20
2016,08,20,16,23,25.20
2016,08,20,16,24,25.20
2016,08,20,16,25,25.20
2016,08,20,16,26,25.20
2016,08,20,16,27,25.20
2016,08,20,16,28,25.30
2016,08,20,16,29,25.40
2016,08,20,16,30,25.40
2016,08,20,16,31,25.50
2016,08,20,16,32,25.50
2016,08,20,16,33,25.50
2016,08,20,16,34,25.50
2016,08,20,16,35,25.50
2016,08,20,16,36,25.60
2016,08,20,16,37,25.60
2016,08,20,16,38,25.70
2016,08,20,16,39,25.70
2016,08,20,16,40,25.80
2016,08,20,16,41,25.80
2016,08,20,16,42,25.90
2016,08,20,16,43,25.90
2016,08,20,16,44,25.90
2016,08,20,16,45,25.90
2016,08,20,16,46,25.90
2016,08,20,16,47,25.90
2016,08,20,16,48,25.90
2016,08,20,16,49,25.90
2016,08,20,16,50,25.90
2016,08,20,16,51,25.90
2016,08,20,16,52,25.90
2016,08,20,16,53,26.00
2016,08,20,16,54,26.00
2016,08,20,16,55,26.00
2016,08,20,16,56,26.00
2016,08,20,16,57,26.00
2016,08,20,16,58,26.00
2016,08,20,16,59,26.00
2016,08,20,17,00,26.00
2016,08,20,17,01,26.10
2016,08,20,17,02,26.10
2016,08,20,17,03,26.10
2016,08,20,17,04,26.10
2016,08,20,17,05,26.10
2016,08,20,17,06,26.20
2016,08,20,17,07,26.20
2016,08,20,17,08,26.20
2016,08,20,17,09,26.20
2016,08,20,17,10,26.20
2016,08,20,17,11,26.20
2016,08,20,17,12,26.30
2016,08,20,17,13,26.30
2016,08,20,17,14,26.40
2016,08,20,17,15,26.40
2016,08,20,17,16,26.40
2016,08,20,17,17,26.60
2016,08,20,17,18,26.60
2016,08,20,17,19,26.60